Weather History for Mountain Home, ID

Change the Weather History Date:

Tuesday, November 20, 2012

  Actual Average Record
Temperature  
Mean Temperature 54 °F 37 °F  
Max Temperature 58 °F 46 °F 63 °F (1966)
Min Temperature 50 °F 26 °F 2 °F (1929)
Degree Days  
Heating Degree Days 11 28  
Month to date heating degree days 413 480  
Cooling Degree Days 0 0  
Month to date cooling degree days 0 0  
Growing Degree Days 4 (Base 50)    
Moisture  
Dew Point 42 °F    
Average Humidity 66    
Maximum Humidity 78    
Minimum Humidity 53    
Precipitation  
Precipitation 0.00 in 0.04 in 0.64 in (1909)
Month to date precipitation 0.11 0.80  
Sea Level Pressure  
Sea Level Pressure 29.95 in    
Wind  
Wind Speed 16 mph (ESE)    
Max Wind Speed 29 mph    
Max Gust Speed 36 mph    
Visibility 10 miles    
Events      
T = Trace of Precipitation, MM = Missing Value Source: NWS Daily Summary

Daily Weather History Graph

Daily Weather History Graph

Search for Another Location

Airport:

Trip Planner

Search our weather history database for the weather conditions in past years. The results will help you decide how hot, cold, wet, or windy it might be!

Date:

Astronomy

Nov. 20, 2012 Rise Set
Actual Time 7:42 AM MST 5:15 PM MST
Civil Twilight 7:11 AM MST 5:46 PM MST
Nautical Twilight 6:37 AM MST 6:20 PM MST
Astronomical Twilight 6:03 AM MST 6:54 PM MST
Moon 1:13 PM MST (11/20) No Moon Set
Length of Visible Light 10h 34m
Length of Day
9h 32m
First Quarter, 52% of the Moon is Illuminated
Nov 20
First Quarter
Nov 28
Full
Dec 6
Last Quarter
Dec 13
New
Dec 19
First Quarter

Hourly Weather History & Observations

Time (MST) Temp. Dew Point Humidity Pressure Visibility Wind Dir Wind Speed Gust Speed Precip Events Conditions
12:58 AM 50.9 °F 43.2 °F 75% 30.05 in 10.0 mi East 15.0 mph - N/A   Overcast
1:58 AM 50.7 °F 42.8 °F 74% 30.05 in 10.0 mi ESE 10.4 mph - N/A   Overcast
2:58 AM 50.2 °F 43.3 °F 77% 30.04 in 10.0 mi East 10.4 mph - N/A   Overcast
3:58 AM 50.9 °F 42.3 °F 72% 30.03 in 10.0 mi Variable 3.5 mph - N/A   Overcast
4:58 AM 51.6 °F 41.0 °F 67% 30.01 in 10.0 mi East 18.4 mph - N/A   Overcast
5:58 AM 51.4 °F 41.0 °F 68% 30.01 in 10.0 mi ESE 16.1 mph - N/A   Overcast
6:58 AM 52.7 °F 40.1 °F 62% 29.99 in 10.0 mi ESE 18.4 mph - N/A   Overcast
7:58 AM 53.8 °F 39.9 °F 59% 30.01 in 10.0 mi ESE 18.4 mph - N/A   Overcast
8:43 AM 53.6 °F 42.8 °F 67% 30.00 in 10.0 mi SE 13.8 mph 24.2 mph N/A   Mostly Cloudy
8:58 AM 53.4 °F 43.9 °F 70% 29.99 in 10.0 mi SE 19.6 mph - N/A   Overcast
9:58 AM 52.7 °F 45.9 °F 78% 29.99 in 10.0 mi ESE 23.0 mph 31.1 mph N/A   Overcast
10:58 AM 53.4 °F 44.4 °F 72% 29.97 in 10.0 mi East 27.6 mph 33.4 mph N/A   Overcast
11:58 AM 54.3 °F 43.3 °F 66% 29.96 in 10.0 mi East 28.8 mph 35.7 mph N/A   Overcast
12:58 PM 54.5 °F 43.3 °F 66% 29.93 in 10.0 mi East 23.0 mph 32.2 mph N/A   Mostly Cloudy
1:58 PM 55.9 °F 41.4 °F 58% 29.92 in 10.0 mi East 21.9 mph 27.6 mph N/A   Mostly Cloudy
2:58 PM 57.0 °F 41.4 °F 56% 29.91 in 10.0 mi East 19.6 mph 26.5 mph N/A   Mostly Cloudy
3:58 PM 58.3 °F 41.0 °F 53% 29.90 in 10.0 mi East 20.7 mph 27.6 mph N/A   Partly Cloudy
4:58 PM 55.4 °F 40.5 °F 57% 29.91 in 10.0 mi ESE 16.1 mph - N/A   Partly Cloudy
5:58 PM 53.8 °F 41.0 °F 62% 29.89 in 10.0 mi ESE 12.7 mph - N/A   Overcast
6:58 PM 52.9 °F 41.2 °F 64% 29.89 in 10.0 mi ESE 17.3 mph - N/A   Overcast
7:58 PM 53.2 °F 40.6 °F 62% 29.88 in 10.0 mi ESE 21.9 mph - N/A   Overcast
8:58 PM 52.9 °F 40.6 °F 63% 29.87 in 10.0 mi East 17.3 mph - N/A   Overcast
9:58 PM 52.7 °F 40.6 °F 64% 29.85 in 10.0 mi ESE 16.1 mph - N/A   Overcast
10:58 PM 52.2 °F 41.0 °F 66% 29.84 in 10.0 mi ESE 15.0 mph - N/A   Overcast
11:58 PM 52.0 °F 40.6 °F 65% 29.84 in 10.0 mi ESE 15.0 mph - N/A   Overcast